Stations météo

réclame
Mon MeteoGroup
Twenthe, Pays-Bas (6290): Température de l'air & dewpoint: 05.12.2018 08:00:00 - 11.12.2018 08:00:00 (CET)Twenthe, Pays-Bas (6290): Température de l'air 5cm: 05.12.2018 08:00:00 - 11.12.2018 08:00:00 (CET)Twenthe, Pays-Bas (6290): Vitesse du vent & gusts: 05.12.2018 08:00:00 - 11.12.2018 08:00:00 (CET)Twenthe, Pays-Bas (6290): Direction du vent: 05.12.2018 08:00:00 - 11.12.2018 08:00:00 (CET)Twenthe, Pays-Bas (6290): reduced air pressure: 05.12.2018 08:00:00 - 11.12.2018 08:00:00 (CET)Twenthe, Pays-Bas (6290): visibility: 05.12.2018 08:00:00 - 11.12.2018 08:00:00 (CET)Twenthe, Pays-Bas (6290): Quantités de précipitations: 05.12.2018 08:00:00 - 11.12.2018 08:00:00 (CET)
Date & Time tt [°C] td [°C] tt 5cm [°C] ff [km/h] ff [knt] fx [km/h] fx [knt] dd ppp [hPa] vv [km] rr [mm]
11.12.2018 08:00:00 - - - - - - - - - - -
11.12.2018 07:00:00 2,6 1,0 1,6 11 6 22 12 W 1021,7 31 0,0
11.12.2018 06:00:00 3,6 2,1 2,4 14 8 22 12 W 1021,9 28 0,0
11.12.2018 05:00:00 3,3 1,7 2,1 11 6 29 16 W 1021,6 34 0,0
11.12.2018 04:00:00 3,9 2,0 3,1 18 10 29 16 W 1021,9 16 0,0
11.12.2018 03:00:00 4,2 1,9 2,9 22 12 36 19 W 1021,7 38 0,0
11.12.2018 02:00:00 3,6 1,7 2,3 14 8 22 12 WNW 1021,7 27 0,0
11.12.2018 01:00:00 2,4 1,6 1,2 7 4 32 18 W 1021,7 16 0,3
11.12.2018 00:00:00 3,7 2,0 2,7 14 8 25 14 W 1021,5 20 0,0
10.12.2018 23:00:00 3,6 2,2 2,8 14 8 25 14 W 1021,5 19 0,0
10.12.2018 22:00:00 4,2 2,6 3,7 14 8 25 14 W 1021,3 21 0,1
10.12.2018 21:00:00 4,0 2,1 2,6 14 8 22 12 W 1021,1 20 0,3
10.12.2018 20:00:00 4,0 1,9 2,9 14 8 40 21 W 1020,9 28 0,0
10.12.2018 19:00:00 4,2 1,9 2,9 18 10 32 18 W 1020,7 23 0,0
10.12.2018 18:00:00 4,3 2,2 3,8 25 14 47 25 W 1020,6 4,0 1,5
10.12.2018 17:00:00 4,7 1,3 3,6 22 12 36 19 W 1020,1 26 0,0
10.12.2018 16:00:00 5,0 0,8 4,2 22 12 36 19 WNW 1020,0 35 0,0
10.12.2018 15:00:00 5,7 1,2 5,5 22 12 43 23 WNW 1019,6 31 0,0
10.12.2018 14:00:00 6,7 1,0 6,5 25 14 40 21 WNW 1019,0 29 0,0
10.12.2018 13:00:00 6,8 2,8 6,9 18 10 32 18 W 1019,1 32 0,0
10.12.2018 12:00:00 5,7 3,4 5,7 18 10 25 14 W 1019,3 19 0,0
10.12.2018 11:00:00 4,6 2,3 4,3 18 10 36 19 W 1019,4 45 0,0
10.12.2018 10:00:00 4,4 2,4 3,5 18 10 29 16 W 1019,0 28 0,0
10.12.2018 09:00:00 3,4 1,9 2,1 14 8 36 19 W 1018,5 33 0,0
10.12.2018 08:00:00 3,6 1,0 2,8 18 10 50 27 W 1018,0 50 0,1
10.12.2018 07:00:00 3,3 0,9 2,4 14 8 47 25 W 1017,4 41 0,0
10.12.2018 06:00:00 3,8 0,7 2,8 18 10 29 16 W 1016,9 43 0,0
10.12.2018 05:00:00 4,4 1,3 3,1 18 10 32 18 W 1016,2 30 0,0
10.12.2018 04:00:00 4,4 1,8 3,5 18 10 29 16 W 1015,5 26 0,0
10.12.2018 03:00:00 4,8 1,9 4,1 18 10 32 18 W 1015,2 25 0,0
10.12.2018 02:00:00 4,7 2,1 3,3 18 10 29 16 W 1014,5 18 0,1
10.12.2018 01:00:00 4,6 1,4 3,7 18 10 29 16 W 1013,9 27 0,0
10.12.2018 00:00:00 5,2 1,8 4,7 22 12 36 19 WNW 1013,0 16 0,2
09.12.2018 23:00:00 6,3 2,0 5,5 18 10 29 16 WNW 1012,0 23 0,0
09.12.2018 22:00:00 5,6 2,0 4,4 18 10 29 16 W 1011,0 18 0,0
09.12.2018 21:00:00 5,9 2,3 4,9 14 8 40 21 W 1010,0 21 0,0
09.12.2018 20:00:00 6,7 2,4 5,7 22 12 32 18 W 1008,8 20 0,0
09.12.2018 19:00:00 6,7 3,1 5,7 22 12 36 19 WNW 1007,2 20 0,0
09.12.2018 18:00:00 7,3 4,3 6,6 18 10 36 19 WNW 1005,5 22 0,0
09.12.2018 17:00:00 7,3 4,7 6,5 18 10 40 21 W 1003,9 26 0,0
09.12.2018 16:00:00 7,9 5,0 7,3 22 12 43 23 WNW 1002,2 31 0,2
09.12.2018 15:00:00 8,9 5,1 8,7 25 14 43 23 W 1000,5 26 0,0
09.12.2018 14:00:00 9,3 5,7 9,1 25 14 43 23 W 999,2 27 0,0
09.12.2018 13:00:00 8,3 6,4 8,4 18 10 32 18 W 998,3 18 0,0
09.12.2018 12:00:00 7,3 5,6 7,0 18 10 36 19 W 997,5 35 0,0
09.12.2018 11:00:00 7,4 5,4 6,9 18 10 32 18 W 996,9 45 0,0
09.12.2018 10:00:00 7,0 5,2 6,5 22 12 32 18 W 996,0 47 0,0
09.12.2018 09:00:00 7,0 5,2 6,6 22 12 50 27 W 995,0 42 1,0
09.12.2018 08:00:00 7,8 6,4 7,6 32 18 47 25 W 993,4 10 2,2
09.12.2018 07:00:00 8,0 6,3 7,5 32 18 50 27 WSW 992,5 10 0,1
09.12.2018 06:00:00 8,0 6,2 7,5 29 16 58 31 WSW 992,0 13 1,0
09.12.2018 05:00:00 8,3 5,5 7,9 32 18 50 27 WSW 991,6 27 0,0
09.12.2018 04:00:00 8,6 5,6 8,0 32 18 50 27 W 991,4 11 0,1
09.12.2018 03:00:00 8,2 6,1 8,0 29 16 50 27 WSW 991,2 17 0,8
09.12.2018 02:00:00 8,1 6,6 7,9 29 16 50 27 W 990,6 8 0,3
09.12.2018 01:00:00 7,8 6,1 7,2 29 16 47 25 WSW 990,6 25 0,2
09.12.2018 00:00:00 7,1 5,6 6,8 25 14 83 45 W 990,9 14 2,9
08.12.2018 23:00:00 9,7 7,6 9,2 29 16 43 23 SW 990,3 40 0,0
08.12.2018 22:00:00 9,3 7,7 8,9 29 16 50 27 SW 991,2 47 0,4
08.12.2018 21:00:00 9,1 7,9 8,7 25 14 43 23 SSW 992,6 18 0,8
08.12.2018 20:00:00 8,3 7,2 8,0 29 16 47 25 SSW 995,1 7 2,0
08.12.2018 19:00:00 9,1 5,4 7,9 25 14 40 21 SW 996,4 14 0,0
08.12.2018 18:00:00 8,7 5,0 7,9 25 14 43 23 SW 998,4 15 0,0
08.12.2018 17:00:00 8,5 4,7 7,4 29 16 47 25 WSW 999,3 22 0,0
08.12.2018 16:00:00 8,5 5,2 8,0 29 16 50 27 WSW 999,6 20 0,0
08.12.2018 15:00:00 8,6 6,1 8,1 29 16 54 29 WSW 999,6 9 0,3
08.12.2018 14:00:00 8,7 6,5 8,6 29 16 50 27 WSW 999,5 14 0,1
08.12.2018 13:00:00 8,5 6,6 8,5 32 18 54 29 WSW 999,5 9 0,2
08.12.2018 12:00:00 8,4 6,6 8,3 29 16 50 27 SW 999,4 12 0,1
08.12.2018 11:00:00 7,6 6,3 7,3 29 16 50 27 SW 999,4 11 1,7
08.12.2018 10:00:00 7,1 5,8 7,0 29 16 54 29 SW 999,5 7 1,0
08.12.2018 09:00:00 7,6 5,1 7,3 29 16 50 27 SW 999,8 16 0,0
08.12.2018 08:00:00 7,6 4,6 7,2 32 18 61 33 SW 999,8 14 0,0
08.12.2018 07:00:00 7,4 4,4 6,8 29 16 47 25 SW 1000,2 16 0,0
08.12.2018 06:00:00 7,0 3,9 6,6 32 18 50 27 SW 1000,7 19 0,0
08.12.2018 05:00:00 6,5 3,6 5,9 25 14 50 27 SW 1001,2 22 0,1
08.12.2018 04:00:00 6,1 3,5 5,7 29 16 43 23 SW 1001,7 12 0,0
08.12.2018 03:00:00 6,1 3,2 5,2 25 14 43 23 SW 1002,3 22 0,0
08.12.2018 02:00:00 6,1 3,4 5,2 25 14 43 23 SW 1002,4 22 0,0
08.12.2018 01:00:00 5,8 3,1 4,9 22 12 32 18 SW 1002,4 23 0,0
08.12.2018 00:00:00 6,1 2,9 5,3 25 14 36 19 WSW 1002,3 33 0,0
07.12.2018 23:00:00 6,0 4,0 5,1 18 10 43 23 SW 1001,6 26 0,1
07.12.2018 22:00:00 6,3 4,6 5,8 18 10 50 27 WSW 1000,8 28 0,3
07.12.2018 21:00:00 6,7 4,5 6,2 22 12 32 18 WSW 999,7 40 0,0
07.12.2018 20:00:00 6,9 4,6 6,4 18 10 47 25 W 998,6 48 0,3
07.12.2018 19:00:00 7,8 6,7 7,6 22 12 61 33 WNW 997,2 12 4,3
07.12.2018 18:00:00 10,2 9,0 10,0 32 18 47 25 SSW 995,1 6 1,2
07.12.2018 17:00:00 10,5 9,2 10,2 25 14 40 21 SSW 996,1 16 1,0
07.12.2018 16:00:00 10,9 9,4 10,7 25 14 47 25 SSW 997,4 6 0,5
07.12.2018 15:00:00 11,5 9,5 11,1 25 14 47 25 SSW 998,7 9 0,0
07.12.2018 14:00:00 11,4 9,7 11,1 29 16 47 25 SSW 1000,1 13 0,0
07.12.2018 13:00:00 11,4 9,8 11,1 25 14 54 29 SSW 1002,0 48 0,0
07.12.2018 12:00:00 11,1 10,0 11,0 32 18 50 27 SSW 1003,4 10 0,2
07.12.2018 11:00:00 11,0 10,2 11,0 29 16 47 25 SSW 1004,6 3,9 0,4
07.12.2018 10:00:00 11,1 10,3 10,9 25 14 50 27 SSW 1005,8 3,9 0,7
07.12.2018 09:00:00 11,1 10,4 10,9 25 14 36 19 SSW 1006,5 4,1 1,6
07.12.2018 08:00:00 11,1 10,4 10,9 22 12 36 19 SSW 1007,4 3,2 0,9
07.12.2018 07:00:00 11,1 10,4 10,9 22 12 40 21 SSW 1008,2 5 0,6
07.12.2018 06:00:00 11,0 10,6 11,0 18 10 40 21 SSW 1009,0 2,1 0,3
07.12.2018 05:00:00 11,0 10,5 10,9 18 10 36 19 SW 1009,6 2,5 0,3
07.12.2018 04:00:00 11,1 10,6 11,0 22 12 36 19 SW 1010,4 2,0 0,3
07.12.2018 03:00:00 11,1 10,6 11,0 22 12 36 19 SW 1011,1 2,0 0,3
07.12.2018 02:00:00 11,2 10,6 11,1 25 14 36 19 SW 1011,6 1,9 0,3
07.12.2018 01:00:00 11,3 10,7 11,2 25 14 40 21 SW 1012,3 2,6 0,3
07.12.2018 00:00:00 11,4 10,8 11,3 22 12 43 23 SW 1012,7 2,9 0,2
06.12.2018 23:00:00 11,7 10,6 11,5 29 16 43 23 SW 1012,8 3,6 0,0
06.12.2018 22:00:00 12,1 10,5 11,7 22 12 36 19 SW 1013,0 10 0,0
06.12.2018 21:00:00 11,7 10,9 11,5 22 12 40 21 SW 1013,4 4,6 0,1
06.12.2018 20:00:00 11,6 10,9 11,4 22 12 36 19 SW 1013,8 1,9 0,1
06.12.2018 19:00:00 11,6 10,6 11,3 22 12 32 18 SSW 1013,8 5 0,0
06.12.2018 18:00:00 11,6 10,3 11,2 22 12 29 16 SSW 1014,0 8 0,0
06.12.2018 17:00:00 11,4 9,7 11,0 18 10 32 18 SSW 1014,2 9 0,0
06.12.2018 16:00:00 11,6 9,4 11,2 25 14 40 21 WSW 1014,4 11 0,0
06.12.2018 15:00:00 11,5 10,3 11,2 18 10 32 18 SW 1014,4 7 0,0
06.12.2018 14:00:00 11,5 10,5 11,4 22 12 36 19 WSW 1014,7 11 0,0
06.12.2018 13:00:00 11,6 10,8 11,7 18 10 32 18 SW 1014,7 4,8 0,2
06.12.2018 12:00:00 11,1 10,8 11,0 18 10 29 16 SW 1014,5 1,9 0,0
06.12.2018 11:00:00 10,5 10,2 10,5 18 10 29 16 SSW 1014,3 1,1 0,0
06.12.2018 10:00:00 10,0 9,8 10,0 14 8 22 12 SSW 1014,1 1,2 0,1
06.12.2018 09:00:00 9,7 9,4 9,5 14 8 25 14 SSW 1014,1 2,8 0,2
06.12.2018 08:00:00 9,3 8,9 9,2 14 8 25 14 SSW 1013,4 3,5 0,0
06.12.2018 07:00:00 8,9 8,5 8,8 14 8 25 14 SSW 1012,7 4,0 0,2
06.12.2018 06:00:00 8,6 8,0 8,4 14 8 22 12 SSW 1012,6 4,1 0,0
06.12.2018 05:00:00 8,2 7,5 8,0 14 8 29 16 S 1012,1 6 0,0
06.12.2018 04:00:00 8,2 6,9 7,9 14 8 32 18 S 1012,8 11 0,0
06.12.2018 03:00:00 7,6 6,7 7,5 14 8 25 14 S 1012,7 8 0,0
06.12.2018 02:00:00 7,7 6,0 7,4 14 8 22 12 S 1013,0 14 0,0
06.12.2018 01:00:00 7,1 5,7 6,9 14 8 22 12 SSE 1013,2 15 0,3
06.12.2018 00:00:00 7,2 5,1 6,9 18 10 22 12 SSE 1013,8 13 0,1
05.12.2018 23:00:00 7,0 5,1 6,6 18 10 25 14 SSE 1014,2 18 0,0
05.12.2018 22:00:00 6,6 5,2 6,3 14 8 22 12 SE 1014,6 13 0,1
05.12.2018 21:00:00 6,5 5,3 6,3 14 8 29 16 SSE 1015,6 11 0,2
05.12.2018 20:00:00 6,7 4,6 6,4 18 10 32 18 SSE 1016,0 14 0,0
05.12.2018 19:00:00 6,5 4,2 6,1 18 10 29 16 SSE 1017,1 15 0,0
05.12.2018 18:00:00 6,0 3,8 5,7 14 8 22 12 SE 1017,7 16 0,0
05.12.2018 17:00:00 5,9 3,4 5,5 14 8 22 12 SE 1018,6 18 0,0
05.12.2018 16:00:00 5,7 3,3 5,4 11 6 18 10 SE 1019,7 18 0,0
05.12.2018 15:00:00 5,7 3,2 5,6 7 4 18 10 ESE 1020,8 18 0,0
05.12.2018 14:00:00 5,6 2,9 5,6 11 6 18 10 SE 1021,8 20 0,0
05.12.2018 13:00:00 4,8 2,4 4,8 11 6 14 8 SE 1022,5 22 0,0
05.12.2018 12:00:00 3,8 1,8 3,8 11 6 18 10 SE 1023,4 18 0,0
05.12.2018 11:00:00 3,0 1,1 2,9 11 6 22 12 SE 1024,5 16 0,0
05.12.2018 10:00:00 1,9 0,7 1,3 11 6 22 12 SE 1024,9 12 0,0
05.12.2018 09:00:00 1,2 0,5 0,6 11 6 18 10 SE 1025,4 9 0,0
05.12.2018 08:00:00 0,8 0,3 -0,1 11 6 14 8 ESE 1025,5 7 0,0

tt = Température de l'air
td = dewpoint
tt 5cm = Température de l'air 5cm
ff = Vitesse du vent
fx = gusts
dd = Direction du vent
ppp = reduced air pressure
vv = visibility
rr = Quantités de précipitations

stations d'obs. à proximité